Time,TemperatureF,DewpointF,PressureIn,WindDirection,WindDirectionDegrees,WindSpeedMPH,WindSpeedGustMPH,Humidity,HourlyPrecipIn,Conditions,Clouds,dailyrainin,SolarRadiationWatts/m^2,SoftwareType,DateUTC
2013-09-23 00:02:00,76.0,50.0,29.81,SSE,149,12.0,18.0,40,-99.99,,,-99.99,0.000000,,2013-09-23 06:02:00,
2013-09-23 00:42:00,78.0,52.0,29.81,West,269,13.0,32.0,39,-99.99,,,-99.99,0.000000,,2013-09-23 06:42:00,
2013-09-23 01:12:00,77.0,49.0,29.82,West,273,14.0,32.0,38,-99.99,,,-99.99,0.000000,,2013-09-23 07:12:00,
2013-09-23 01:22:00,77.0,49.0,29.82,West,273,14.0,32.0,38,-99.99,,,-99.99,0.000000,,2013-09-23 07:22:00,
2013-09-23 01:42:00,75.0,50.0,29.83,WNW,282,10.0,19.0,41,-99.99,,,-99.99,0.000000,,2013-09-23 07:42:00,
2013-09-23 02:11:00,75.0,50.0,29.82,WNW,283,11.0,20.0,41,-99.99,,,-99.99,0.000000,,2013-09-23 08:11:00,
2013-09-23 02:23:00,74.0,49.0,29.83,WNW,297,12.0,22.0,41,-99.99,,,-99.99,0.000000,,2013-09-23 08:23:00,
2013-09-23 02:42:00,74.0,49.0,29.83,WNW,292,10.0,17.0,41,-99.99,,,-99.99,0.000000,,2013-09-23 08:42:00,
2013-09-23 02:52:00,73.0,49.0,29.83,WNW,287,12.0,26.0,41,-99.99,,,-99.99,0.000000,,2013-09-23 08:52:00,
2013-09-23 03:02:00,73.0,49.0,29.83,WNW,287,12.0,26.0,41,-99.99,,,-99.99,0.000000,,2013-09-23 09:02:00,
2013-09-23 03:21:00,73.0,49.0,29.83,WNW,287,12.0,22.0,42,-99.99,,,-99.99,0.000000,,2013-09-23 09:21:00,
2013-09-23 03:33:00,73.0,49.0,29.83,WNW,287,12.0,22.0,42,-99.99,,,-99.99,0.000000,,2013-09-23 09:33:00,
2013-09-23 04:23:00,72.0,47.0,29.83,WNW,282,19.0,34.0,40,-99.99,,,-99.99,0.000000,,2013-09-23 10:23:00,
2013-09-23 04:42:00,72.0,47.0,29.84,WNW,288,18.0,31.0,40,-99.99,,,-99.99,0.000000,,2013-09-23 10:42:00,
2013-09-23 04:53:00,71.0,47.0,29.85,WNW,290,14.0,25.0,41,-99.99,,,-99.99,0.000000,,2013-09-23 10:53:00,
2013-09-23 05:03:00,71.0,47.0,29.85,WNW,290,14.0,25.0,41,-99.99,,,-99.99,0.000000,,2013-09-23 11:03:00,
2013-09-23 05:42:00,71.0,46.0,29.86,WNW,293,12.0,21.0,40,-99.99,,,-99.99,0.000000,,2013-09-23 11:42:00,
2013-09-23 05:52:00,71.0,46.0,29.86,WNW,285,12.0,22.0,40,-99.99,,,-99.99,0.000000,,2013-09-23 11:52:00,
2013-09-23 06:01:00,71.0,46.0,29.86,WNW,285,12.0,22.0,40,-99.99,,,-99.99,0.000000,,2013-09-23 12:01:00,
2013-09-23 06:11:00,71.0,46.0,29.86,WNW,285,12.0,22.0,40,-99.99,,,-99.99,0.000000,,2013-09-23 12:11:00,
2013-09-23 06:42:00,68.0,46.0,29.89,NNW,330,14.0,21.0,45,-99.99,,,-99.99,0.000000,,2013-09-23 12:42:00,
2013-09-23 06:52:00,67.0,46.0,29.90,NNW,333,13.0,20.0,46,-99.99,,,-99.99,0.000000,,2013-09-23 12:52:00,
2013-09-23 07:02:00,67.0,46.0,29.90,NNW,333,13.0,20.0,46,-99.99,,,-99.99,0.000000,,2013-09-23 13:02:00,
2013-09-23 07:22:00,66.0,45.0,29.90,NNW,329,10.0,15.0,47,-99.99,,,-99.99,0.000000,,2013-09-23 13:22:00,
2013-09-23 07:42:00,65.0,42.0,29.92,NW,324,8.0,15.0,43,-99.99,,,-99.99,16.740000,,2013-09-23 13:42:00,
2013-09-23 07:52:00,63.0,43.0,29.93,SW,226,3.0,6.0,47,-99.99,,,-99.99,50.910000,,2013-09-23 13:52:00,
2013-09-23 08:01:00,63.0,43.0,29.93,SW,226,3.0,6.0,47,-99.99,,,-99.99,50.910000,,2013-09-23 14:01:00,
2013-09-23 08:42:00,65.0,46.0,29.95,ESE,108,3.0,6.0,50,-99.99,,,-99.99,145.740005,,2013-09-23 14:42:00,
2013-09-23 08:52:00,66.0,45.0,29.95,ESE,116,2.0,3.0,46,-99.99,,,-99.99,191.070007,,2013-09-23 14:52:00,
2013-09-23 09:02:00,66.0,45.0,29.95,ESE,116,2.0,3.0,46,-99.99,,,-99.99,191.070007,,2013-09-23 15:02:00,
2013-09-23 09:43:00,70.0,41.0,29.97,NE,37,1.0,6.0,35,-99.99,,,-99.99,334.019989,,2013-09-23 15:43:00,
2013-09-23 10:12:00,72.0,36.0,29.98,NE,56,4.0,10.0,27,-99.99,,,-99.99,468.609985,,2013-09-23 16:12:00,
2013-09-23 10:24:00,72.0,36.0,29.98,NE,56,4.0,10.0,27,-99.99,,,-99.99,468.609985,,2013-09-23 16:24:00,
2013-09-23 10:43:00,73.0,41.0,29.98,NW,324,9.0,15.0,30,-99.99,,,-99.99,548.799988,,2013-09-23 16:43:00,
2013-09-23 11:12:00,74.0,41.0,29.98,NNW,330,10.0,16.0,30,-99.99,,,-99.99,586.460022,,2013-09-23 17:12:00,
2013-09-23 11:42:00,75.0,40.0,29.98,NW,314,10.0,17.0,28,-99.99,,,-99.99,683.390015,,2013-09-23 17:42:00,
2013-09-23 12:12:00,75.0,39.0,29.98,NNW,329,10.0,17.0,26,-99.99,,,-99.99,707.789978,,2013-09-23 18:12:00,
2013-09-23 12:42:00,76.0,39.0,29.98,NW,322,12.0,20.0,25,-99.99,,,-99.99,759.400024,,2013-09-23 18:42:00,
2013-09-23 13:12:00,77.0,38.0,29.98,NW,324,12.0,21.0,24,-99.99,,,-99.99,767.070007,,2013-09-23 19:12:00,
2013-09-23 13:42:00,77.0,35.0,29.98,NW,319,13.0,22.0,21,-99.99,,,-99.99,779.619995,,2013-09-23 19:42:00,
2013-09-23 13:53:00,77.0,35.0,29.98,NW,319,13.0,22.0,21,-99.99,,,-99.99,779.619995,,2013-09-23 19:53:00,
2013-09-23 14:02:00,77.0,35.0,29.98,NW,319,13.0,22.0,21,-99.99,,,-99.99,779.619995,,2013-09-23 20:02:00,
2013-09-23 14:42:00,79.0,35.0,29.97,NW,310,10.0,18.0,20,-99.99,,,-99.99,741.960022,,2013-09-23 20:42:00,
2013-09-23 14:52:00,79.0,34.0,29.97,NW,312,12.0,20.0,19,-99.99,,,-99.99,723.130005,,2013-09-23 20:52:00,
2013-09-23 15:02:00,79.0,34.0,29.97,NW,312,12.0,20.0,19,-99.99,,,-99.99,723.130005,,2013-09-23 21:02:00,
2013-09-23 15:44:00,80.0,35.0,29.96,NW,308,10.0,17.0,19,-99.99,,,-99.99,649.909973,,2013-09-23 21:44:00,
2013-09-23 16:43:00,80.0,34.0,29.96,WNW,300,10.0,17.0,18,-99.99,,,-99.99,506.959991,,2013-09-23 22:43:00,
2013-09-23 16:54:00,80.0,34.0,29.96,WNW,300,10.0,17.0,18,-99.99,,,-99.99,506.959991,,2013-09-23 22:54:00,
2013-09-23 17:12:00,80.0,34.0,29.95,NW,309,10.0,17.0,18,-99.99,,,-99.99,419.100006,,2013-09-23 23:12:00,
2013-09-23 17:42:00,80.0,34.0,29.96,NW,309,10.0,19.0,18,-99.99,,,-99.99,324.959991,,2013-09-23 23:42:00,
2013-09-23 17:54:00,80.0,33.0,29.96,NW,318,12.0,17.0,18,-99.99,,,-99.99,274.750000,,2013-09-23 23:54:00,
2013-09-23 18:01:00,80.0,33.0,29.96,NW,318,12.0,17.0,18,-99.99,,,-99.99,274.750000,,2013-09-24 00:01:00,
2013-09-23 18:11:00,80.0,33.0,29.96,NW,318,12.0,17.0,18,-99.99,,,-99.99,274.750000,,2013-09-24 00:11:00,
2013-09-23 18:22:00,79.0,35.0,29.97,WNW,296,10.0,14.0,20,-99.99,,,-99.99,182.699997,,2013-09-24 00:22:00,
2013-09-23 18:42:00,78.0,36.0,29.97,NW,304,8.0,12.0,22,-99.99,,,-99.99,134.589996,,2013-09-24 00:42:00,
2013-09-23 19:52:00,68.0,40.0,29.98,WNW,303,6.0,8.0,36,-99.99,,,-99.99,2.090000,,2013-09-24 01:52:00,
2013-09-23 20:02:00,68.0,40.0,29.98,WNW,303,6.0,8.0,36,-99.99,,,-99.99,2.090000,,2013-09-24 02:02:00,
2013-09-23 21:44:00,61.0,43.0,30.02,West,259,5.0,6.0,51,-99.99,,,-99.99,0.000000,,2013-09-24 03:44:00,
2013-09-23 22:14:00,60.0,43.0,30.03,WSW,254,6.0,7.0,53,-99.99,,,-99.99,0.000000,,2013-09-24 04:14:00,
2013-09-23 22:24:00,60.0,43.0,30.03,WSW,254,6.0,7.0,53,-99.99,,,-99.99,0.000000,,2013-09-24 04:24:00,
2013-09-23 22:44:00,58.0,43.0,30.04,WSW,253,4.0,6.0,56,-99.99,,,-99.99,0.000000,,2013-09-24 04:44:00,
2013-09-23 23:43:00,58.0,41.0,30.05,WNW,291,7.0,11.0,53,-99.99,,,-99.99,0.000000,,2013-09-24 05:43:00,